Location: Gro�sch�nbrunn
(49.5760°N, 11.8868°E)
Time: 17:24:36
(UTC+00:00)

Cosmos 1626 - Pass Details

Date: 18 September 2020
Orbit: 490 x 495 km, 82.5° (Epoch: 31 October)

Event Time Altitude Azimuth Distance (km) Brightness Sun altitude
Rises 18:37:57 0° 4° (N) 2,592 6.0 -13.5°
Reaches altitude 10° 18:40:46 10° 27° (NNE) 1,702 4.7 -13.9°
Enters shadow 18:42:56 16° 63° (ENE) 1,374 4.0 -14.2°
